TimeMST,TemperatureF,Dew PointF,Humidity,Sea Level PressureIn,VisibilityMPH,Wind Direction,Wind SpeedMPH,Gust SpeedMPH,PrecipitationIn,Events,Conditions,WindDirDegrees,DateUTC
12:15 AM,30.2,19.4,64,30.12,10.0,SSE,9.2,-,N/A,,Clear,150,2012-11-14 07:15:00
12:35 AM,30.2,19.4,64,30.12,10.0,SSE,9.2,-,N/A,,Clear,150,2012-11-14 07:35:00
12:55 AM,28.4,19.4,69,30.11,10.0,SSE,6.9,-,N/A,,Clear,160,2012-11-14 07:55:00
1:15 AM,28.4,19.4,69,30.11,10.0,South,4.6,-,N/A,,Clear,170,2012-11-14 08:15:00
1:35 AM,28.4,19.4,69,30.11,10.0,SE,8.1,-,N/A,,Scattered Clouds,140,2012-11-14 08:35:00
1:55 AM,28.4,19.4,69,30.11,10.0,South,5.8,-,N/A,,Mostly Cloudy,170,2012-11-14 08:55:00
2:15 AM,30.2,19.4,64,30.11,10.0,South,10.4,-,N/A,,Mostly Cloudy,170,2012-11-14 09:15:00
2:35 AM,30.2,21.2,69,30.11,10.0,SW,8.1,-,N/A,,Scattered Clouds,220,2012-11-14 09:35:00
2:55 AM,30.2,19.4,64,30.10,10.0,SSW,5.8,-,N/A,,Mostly Cloudy,200,2012-11-14 09:55:00
3:15 AM,28.4,17.6,64,30.10,10.0,North,3.5,-,N/A,,Scattered Clouds,350,2012-11-14 10:15:00
3:35 AM,26.6,19.4,74,30.10,10.0,SE,9.2,-,N/A,,Scattered Clouds,140,2012-11-14 10:35:00
3:56 AM,26.6,19.4,74,30.09,10.0,SSE,10.4,-,N/A,,Scattered Clouds,150,2012-11-14 10:56:00
4:15 AM,28.4,21.2,74,30.09,10.0,South,5.8,-,N/A,,Partly Cloudy,170,2012-11-14 11:15:00
4:35 AM,30.2,19.4,64,30.08,10.0,SE,8.1,-,N/A,,Partly Cloudy,130,2012-11-14 11:35:00
4:55 AM,30.2,19.4,64,30.08,10.0,SE,10.4,-,N/A,,Clear,140,2012-11-14 11:55:00
5:15 AM,33.8,21.2,60,30.09,10.0,South,6.9,-,N/A,,Clear,190,2012-11-14 12:15:00
5:35 AM,30.2,21.2,69,30.08,10.0,SW,11.5,-,N/A,,Clear,220,2012-11-14 12:35:00
5:55 AM,33.8,23.0,65,30.07,10.0,SW,8.1,-,N/A,,Clear,220,2012-11-14 12:55:00
6:15 AM,39.2,26.6,61,30.08,10.0,West,5.8,17.3,N/A,,Clear,280,2012-11-14 13:15:00
6:35 AM,39.2,24.8,56,30.07,10.0,WSW,5.8,-,N/A,,Clear,240,2012-11-14 13:35:00
6:55 AM,39.2,24.8,56,30.08,10.0,West,12.7,17.3,N/A,,Clear,270,2012-11-14 13:55:00
7:15 AM,39.2,24.8,56,30.08,10.0,West,8.1,-,N/A,,Clear,270,2012-11-14 14:15:00
7:35 AM,39.2,24.8,56,30.08,10.0,West,11.5,17.3,N/A,,Clear,280,2012-11-14 14:35:00
7:55 AM,41.0,24.8,53,30.07,10.0,West,12.7,19.6,N/A,,Clear,260,2012-11-14 14:55:00
8:15 AM,41.0,24.8,53,30.08,10.0,West,16.1,20.7,N/A,,Clear,260,2012-11-14 15:15:00
8:35 AM,42.8,24.8,49,30.07,10.0,WSW,16.1,25.3,N/A,,Clear,240,2012-11-14 15:35:00
8:55 AM,42.8,24.8,49,30.07,10.0,WSW,18.4,25.3,N/A,,Clear,250,2012-11-14 15:55:00
9:15 AM,42.8,24.8,49,30.07,10.0,West,15.0,24.2,N/A,,Clear,260,2012-11-14 16:15:00
9:35 AM,42.8,26.6,53,30.07,10.0,WSW,17.3,23.0,N/A,,Clear,250,2012-11-14 16:35:00
9:55 AM,42.8,24.8,49,30.07,10.0,SW,18.4,23.0,N/A,,Clear,230,2012-11-14 16:55:00
10:35 AM,44.6,26.6,49,30.08,10.0,WSW,13.8,26.5,N/A,,Clear,250,2012-11-14 17:35:00
10:55 AM,37.4,23.0,56,30.09,10.0,North,5.8,-,N/A,,Clear,350,2012-11-14 17:55:00
11:15 AM,42.8,28.4,57,30.08,10.0,West,4.6,-,N/A,,Clear,280,2012-11-14 18:15:00
11:35 AM,44.6,26.6,49,30.07,10.0,WSW,13.8,19.6,N/A,,Clear,240,2012-11-14 18:35:00
11:55 AM,44.6,28.4,53,30.07,10.0,WSW,11.5,21.9,N/A,,Clear,250,2012-11-14 18:55:00
12:15 PM,42.8,28.4,57,30.06,10.0,WNW,15.0,20.7,N/A,,Clear,290,2012-11-14 19:15:00
12:35 PM,44.6,28.4,53,30.06,10.0,West,19.6,26.5,N/A,,Clear,270,2012-11-14 19:35:00
12:55 PM,44.6,26.6,49,30.06,10.0,West,19.6,24.2,N/A,,Clear,260,2012-11-14 19:55:00
1:15 PM,44.6,26.6,49,30.06,10.0,West,13.8,24.2,N/A,,Clear,270,2012-11-14 20:15:00
1:35 PM,44.6,26.6,49,30.06,10.0,West,17.3,25.3,N/A,,Clear,270,2012-11-14 20:35:00
1:55 PM,46.4,26.6,46,30.06,10.0,WSW,15.0,24.2,N/A,,Clear,250,2012-11-14 20:55:00
2:15 PM,46.4,26.6,46,30.07,10.0,West,12.7,21.9,N/A,,Partly Cloudy,260,2012-11-14 21:15:00
2:35 PM,46.4,26.6,46,30.07,10.0,West,13.8,21.9,N/A,,Mostly Cloudy,260,2012-11-14 21:35:00
2:55 PM,46.4,28.4,50,30.07,10.0,NNE,6.9,-,N/A,,Overcast,30,2012-11-14 21:55:00
3:15 PM,46.4,26.6,46,30.08,10.0,WNW,6.9,-,N/A,,Mostly Cloudy,290,2012-11-14 22:15:00
3:35 PM,44.6,26.6,49,30.08,10.0,West,6.9,-,N/A,,Partly Cloudy,260,2012-11-14 22:35:00
3:55 PM,44.6,26.6,49,30.08,10.0,West,15.0,20.7,N/A,,Clear,260,2012-11-14 22:55:00
4:15 PM,42.8,26.6,53,30.09,10.0,West,16.1,21.9,N/A,,Clear,260,2012-11-14 23:15:00
4:35 PM,42.8,26.6,53,30.10,10.0,West,10.4,17.3,N/A,,Clear,270,2012-11-14 23:35:00
4:55 PM,41.0,26.6,57,30.11,10.0,West,11.5,16.1,N/A,,Scattered Clouds,270,2012-11-14 23:55:00
5:15 PM,41.0,26.6,57,30.11,10.0,West,11.5,-,N/A,,Partly Cloudy,260,2012-11-15 00:15:00
5:35 PM,39.2,26.6,61,30.13,10.0,NE,6.9,-,N/A,,Clear,40,2012-11-15 00:35:00
5:55 PM,37.4,26.6,65,30.14,10.0,ENE,4.6,-,N/A,,Clear,70,2012-11-15 00:55:00
6:15 PM,37.4,24.8,60,30.15,10.0,Calm,Calm,-,N/A,,Clear,0,2012-11-15 01:15:00
6:35 PM,35.6,24.8,65,30.15,10.0,SW,4.6,-,N/A,,Clear,230,2012-11-15 01:35:00
6:55 PM,33.8,24.8,70,30.16,10.0,Calm,Calm,-,N/A,,Clear,0,2012-11-15 01:55:00
7:15 PM,35.6,28.4,75,30.17,10.0,WSW,3.5,-,N/A,,Scattered Clouds,250,2012-11-15 02:15:00
7:35 PM,32.0,24.8,75,30.17,10.0,NNE,5.8,-,N/A,,Mostly Cloudy,30,2012-11-15 02:35:00
7:55 PM,32.0,24.8,75,30.18,10.0,Calm,Calm,-,N/A,,Scattered Clouds,0,2012-11-15 02:55:00
8:15 PM,33.8,26.6,75,30.19,10.0,Calm,Calm,-,N/A,,Clear,0,2012-11-15 03:15:00
8:35 PM,30.2,26.6,86,30.19,10.0,Calm,Calm,-,N/A,,Clear,0,2012-11-15 03:35:00
8:55 PM,30.2,26.6,86,30.20,10.0,Calm,Calm,-,N/A,,Clear,0,2012-11-15 03:55:00
9:15 PM,28.4,21.2,74,30.21,10.0,South,4.6,-,N/A,,Clear,180,2012-11-15 04:15:00
9:35 PM,30.2,24.8,80,30.21,10.0,Calm,Calm,-,N/A,,Clear,0,2012-11-15 04:35:00
9:55 PM,30.2,23.0,75,30.22,10.0,Calm,Calm,-,N/A,,Clear,0,2012-11-15 04:55:00
10:35 PM,28.4,21.2,74,30.22,10.0,SSW,6.9,-,N/A,,Partly Cloudy,210,2012-11-15 05:35:00
10:55 PM,28.4,23.0,80,30.22,10.0,Calm,Calm,-,N/A,,Clear,0,2012-11-15 05:55:00
11:15 PM,28.4,21.2,74,30.23,10.0,South,3.5,-,N/A,,Clear,180,2012-11-15 06:15:00
11:35 PM,26.6,24.8,93,30.24,10.0,South,4.6,-,N/A,,Clear,180,2012-11-15 06:35:00
11:55 PM,26.6,23.0,86,30.24,10.0,Calm,Calm,-,N/A,,Clear,0,2012-11-15 06:55:00